| time (UTC) | temp F | wind direction | speed knots | gust knots | rain 1hr in | rain 24hr in | rain mn in | humidity % | barometer mb |
| 20260906104536 | 72 | 0 | 0.0 | 0.0 | 0.00 | 0.17 | 0.00 | 100 | 1013.8 |
| 20260906103047 | 72 | 0 | 0.0 | 0.0 | 0.00 | 0.17 | 0.00 | 100 | 1013.7 |
| 20260906101533 | 72 | 0 | 0.0 | 0.0 | 0.00 | 0.17 | 0.00 | 100 | 1013.5 |
| 20260906100034 | 72 | 0 | 0.0 | 0.0 | 0.00 | 0.17 | 0.00 | 100 | 1013.3 |
| 20260906094536 | 73 | 0 | 0.0 | 0.0 | 0.00 | 0.17 | 0.00 | 100 | 1013.2 |
| 20260906093039 | 73 | 0 | 0.0 | 0.0 | 0.00 | 0.17 | 0.00 | 100 | 1013.2 |
| 20260906091533 | 73 | 0 | 0.0 | 0.0 | 0.00 | 0.17 | 0.00 | 100 | 1013.2 |
| 20260906090052 | 73 | 0 | 0.0 | 0.0 | 0.00 | 0.17 | 0.00 | 100 | 1013.0 |
| 20260906084533 | 73 | 0 | 0.0 | 0.0 | 0.00 | 0.17 | 0.00 | 100 | 1013.1 |
| 20260906083038 | 73 | 0 | 0.0 | 0.0 | 0.00 | 0.17 | 0.00 | 100 | 1013.0 |
| 20260906081534 | 73 | 0 | 0.0 | 0.0 | 0.00 | 0.17 | 0.00 | 100 | 1013.0 |
| 20260906080036 | 74 | 0 | 0.0 | 0.0 | 0.00 | 0.17 | 0.00 | 100 | 1012.8 |
| 20260906074536 | 74 | 0 | 0.0 | 0.0 | 0.00 | 0.17 | 0.00 | 100 | 1012.9 |
| 20260906073040 | 74 | 0 | 0.0 | 0.0 | 0.00 | 0.17 | 0.00 | 100 | 1013.0 |
| 20260906071536 | 74 | 0 | 0.0 | 0.0 | 0.00 | 0.17 | 0.00 | 100 | 1013.3 |
| 20260906070041 | 74 | 0 | 0.0 | 0.0 | 0.00 | 0.17 | 0.00 | 100 | 1013.3 |
| 20260906064535 | 75 | 0 | 0.0 | 0.0 | 0.00 | 0.17 | 0.00 | 100 | 1013.2 |
| 20260906063045 | 75 | 0 | 0.0 | 0.0 | 0.00 | 0.17 | 0.00 | 100 | 1013.4 |
| 20260906061534 | 75 | 0 | 0.0 | 0.0 | 0.00 | 0.17 | 0.00 | 100 | 1013.3 |
| 20260906060034 | 75 | 0 | 0.0 | 0.0 | 0.00 | 0.17 | 0.00 | 100 | 1013.2 |
| 20260906054537 | 75 | 0 | 0.0 | 0.0 | 0.00 | 0.17 | 0.00 | 100 | 1013.3 |
| 20260906053033 | 76 | 0 | 0.0 | 0.0 | 0.00 | 0.17 | 0.00 | 100 | 1013.3 |
| 20260906051552 | 76 | 0 | 0.0 | 0.0 | 0.00 | 0.17 | 0.00 | 100 | 1013.3 |
| 20260906050041 | 76 | 0 | 0.0 | 0.0 | 0.00 | 0.17 | 0.00 | 100 | 1013.4 |
| 20260906044541 | 76 | 0 | 0.0 | 0.0 | 0.00 | 0.17 | 0.00 | 100 | 1013.2 |
| 20260906043047 | 76 | 0 | 0.0 | 0.0 | 0.00 | 0.17 | 0.00 | 100 | 1013.4 |
| 20260906041536 | 76 | 0 | 0.0 | 0.0 | 0.00 | 0.17 | 0.00 | 100 | 1013.4 |
| 20260906040038 | 76 | 0 | 0.0 | 0.0 | 0.00 | 0.17 | 0.00 | 100 | 1013.3 |
| 20260906034540 | 76 | 0 | 0.0 | 0.0 | 0.00 | 0.17 | 0.17 | 100 | 1013.3 |
| 20260906033037 | 77 | 0 | 0.0 | 0.0 | 0.00 | 0.17 | 0.17 | 100 | 1013.1 |
| 20260906031539 | 77 | 0 | 0.0 | 0.0 | 0.00 | 0.17 | 0.17 | 100 | 1012.5 |
| 20260906030034 | 77 | 0 | 0.0 | 0.0 | 0.00 | 0.17 | 0.17 | 100 | 1012.7 |
| 20260906024534 | 78 | 0 | 0.0 | 0.0 | 0.00 | 0.17 | 0.17 | 100 | 1012.7 |
| 20260906023037 | 78 | 0 | 0.0 | 0.0 | 0.00 | 0.17 | 0.17 | 100 | 1012.9 |
| 20260906021535 | 78 | 0 | 0.0 | 0.0 | 0.00 | 0.17 | 0.17 | 100 | 1012.7 |
| 20260906020039 | 78 | 0 | 0.0 | 0.0 | 0.00 | 0.17 | 0.17 | 100 | 1012.4 |
| 20260906014535 | 79 | 0 | 0.0 | 0.0 | 0.00 | 0.17 | 0.17 | 100 | 1012.4 |
| 20260906013055 | 79 | 0 | 0.0 | 0.0 | 0.00 | 0.17 | 0.17 | 100 | 1012.3 |
| 20260906011544 | 80 | 0 | 0.0 | 0.0 | 0.00 | 0.17 | 0.17 | 4 | 1012.1 |
| 20260906010038 | 80 | 0 | 0.0 | 0.0 | 0.00 | 0.17 | 0.17 | 10 | 1012.0 |
| 20260906004534 | 81 | 0 | 0.0 | 0.0 | 0.01 | 0.17 | 0.17 | 16 | 1012.1 |
| 20260906003037 | 82 | 0 | 0.0 | 0.0 | 0.05 | 0.17 | 0.17 | 27 | 1012.0 |
| 20260906001535 | 84 | 0 | 0.0 | 0.0 | 0.05 | 0.17 | 0.17 | 46 | 1012.5 |
| 20260906000037 | 86 | 0 | 0.0 | 0.0 | 0.05 | 0.17 | 0.17 | 58 | 1012.7 |
| 20260905234535 | 89 | 0 | 0.0 | 0.0 | 0.04 | 0.16 | 0.16 | 63 | 1013.2 |
| 20260905233040 | 91 | 0 | 0.0 | 0.0 | 0.00 | 0.12 | 0.12 | 62 | 1013.0 |
| 20260905231534 | 93 | 0 | 0.0 | 0.0 | 0.00 | 0.12 | 0.12 | 61 | 1012.7 |
| 20260905230041 | 96 | 0 | 0.0 | 0.0 | 0.00 | 0.12 | 0.12 | 60 | 1012.5 |
| 20260905224536 | 98 | 0 | 0.0 | 0.0 | 0.00 | 0.12 | 0.12 | 57 | 1012.2 |
| 20260905223041 | 100 | 0 | 0.0 | 0.0 | 0.00 | 0.12 | 0.12 | 56 | 1012.3 |
| 20260905221534 | 101 | 0 | 0.0 | 0.0 | 0.00 | 0.12 | 0.12 | 52 | 1012.3 |
| 20260905220037 | 101 | 0 | 0.0 | 0.0 | 0.00 | 0.12 | 0.12 | 54 | 1012.1 |
| 20260905214539 | 102 | 0 | 0.0 | 0.0 | 0.00 | 0.12 | 0.12 | 53 | 1012.4 |
| 20260905213037 | 102 | 0 | 0.0 | 0.0 | 0.00 | 0.12 | 0.12 | 55 | 1012.4 |
| 20260905211539 | 102 | 0 | 0.0 | 0.0 | 0.00 | 0.12 | 0.12 | 52 | 1012.4 |
| 20260905210047 | 102 | 0 | 0.0 | 0.0 | 0.00 | 0.12 | 0.12 | 51 | 1012.5 |
| 20260905204535 | 102 | 0 | 0.0 | 0.0 | 0.00 | 0.12 | 0.12 | 55 | 1012.5 |
| 20260905203049 | 101 | 0 | 0.0 | 0.0 | 0.00 | 0.12 | 0.12 | 53 | 1012.7 |
| 20260905201535 | 100 | 0 | 0.0 | 0.0 | 0.00 | 0.12 | 0.12 | 54 | 1012.9 |
| 20260905200037 | 99 | 0 | 0.0 | 0.0 | 0.00 | 0.12 | 0.12 | 55 | 1013.1 |
| 20260905194535 | 99 | 0 | 0.0 | 0.0 | 0.00 | 0.12 | 0.12 | 56 | 1013.4 |
| 20260905193036 | 98 | 0 | 0.0 | 0.0 | 0.00 | 0.12 | 0.12 | 55 | 1013.6 |
| 20260905191539 | 97 | 0 | 0.0 | 0.0 | 0.00 | 0.12 | 0.12 | 56 | 1013.7 |
| 20260905190035 | 96 | 0 | 0.0 | 0.0 | 0.00 | 0.12 | 0.12 | 58 | 1013.9 |
| 20260905184545 | 95 | 0 | 0.0 | 0.0 | 0.00 | 0.12 | 0.12 | 58 | 1014.0 |
| 20260905183033 | 93 | 0 | 0.0 | 0.0 | 0.00 | 0.12 | 0.12 | 60 | 1014.3 |
| 20260905181540 | 92 | 0 | 0.0 | 0.0 | 0.00 | 0.12 | 0.12 | 62 | 1014.6 |
| 20260905180038 | 89 | 0 | 0.0 | 0.0 | 0.00 | 0.12 | 0.12 | 63 | 1014.6 |
| 20260905174537 | 87 | 0 | 0.0 | 0.0 | 0.00 | 0.12 | 0.12 | 63 | 1014.8 |
| 20260905173037 | 85 | 0 | 0.0 | 0.0 | 0.00 | 0.12 | 0.12 | 60 | 1014.7 |
| 20260905171550 | 83 | 0 | 0.0 | 0.0 | 0.00 | 0.12 | 0.12 | 52 | 1014.9 |
| 20260905170033 | 82 | 0 | 0.0 | 0.0 | 0.00 | 0.12 | 0.12 | 44 | 1015.2 |
| 20260905164544 | 81 | 0 | 0.0 | 0.0 | 0.00 | 0.12 | 0.12 | 11 | 1015.4 |
| 20260905163041 | 80 | 0 | 0.0 | 0.0 | 0.00 | 0.12 | 0.12 | 100 | 1015.5 |
| 20260905161537 | 79 | 0 | 0.0 | 0.0 | 0.00 | 0.12 | 0.12 | 100 | 1015.3 |
| 20260905160038 | 77 | 0 | 0.0 | 0.0 | 0.00 | 0.12 | 0.12 | 100 | 1015.4 |
| 20260905154540 | 76 | 0 | 0.0 | 0.0 | 0.00 | 0.12 | 0.12 | 100 | 1015.4 |
| 20260905153033 | 76 | 0 | 0.0 | 0.0 | 0.00 | 0.12 | 0.12 | 100 | 1015.6 |
| 20260905151540 | 75 | 0 | 0.0 | 0.0 | 0.00 | 0.12 | 0.12 | 100 | 1015.9 |
| 20260905150045 | 74 | 0 | 0.0 | 0.0 | 0.00 | 0.12 | 0.12 | 100 | 1015.8 |
| 20260905144538 | 74 | 0 | 0.0 | 0.0 | 0.00 | 0.12 | 0.12 | 100 | 1016.0 |
| 20260905143038 | 74 | 0 | 0.0 | 0.0 | 0.00 | 0.12 | 0.12 | 100 | 1016.1 |
| 20260905141536 | 73 | 0 | 0.0 | 0.0 | 0.00 | 0.12 | 0.12 | 100 | 1016.3 |
| 20260905140037 | 73 | 0 | 0.0 | 0.0 | 0.00 | 0.12 | 0.12 | 100 | 1016.5 |
| 20260905134536 | 73 | 0 | 0.0 | 0.0 | 0.00 | 0.12 | 0.12 | 100 | 1016.4 |
| 20260905133033 | 73 | 0 | 0.0 | 0.0 | 0.01 | 0.12 | 0.12 | 100 | 1016.4 |
| 20260905131538 | 73 | 0 | 0.0 | 0.0 | 0.01 | 0.12 | 0.12 | 100 | 1016.2 |
| 20260905130034 | 73 | 0 | 0.0 | 0.0 | 0.12 | 0.12 | 0.12 | 100 | 1016.2 |
| 20260905124537 | 74 | 0 | 0.0 | 0.0 | 0.12 | 0.12 | 0.12 | 100 | 1016.3 |
| 20260905123039 | 75 | 0 | 0.0 | 0.0 | 0.11 | 0.11 | 0.11 | 100 | 1015.8 |
| 20260905121539 | 75 | 0 | 0.0 | 0.0 | 0.11 | 0.11 | 0.11 | 100 | 1015.9 |
| 20260905120041 | 75 | 0 | 0.0 | 0.0 | 0.00 | 0.00 | 0.00 | 100 | 1016.3 |
| 20260905114535 | 76 | 0 | 0.0 | 0.0 | 0.00 | 0.00 | 0.00 | 100 | 1015.5 |
| 20260905113037 | 76 | 0 | 0.0 | 0.0 | 0.00 | 0.00 | 0.00 | 100 | 1015.5 |
| 20260905111545 | 76 | 0 | 0.0 | 0.0 | 0.00 | 0.00 | 0.00 | 100 | 1015.2 |
| 20260905110039 | 77 | 0 | 0.0 | 0.0 | 0.00 | 0.00 | 0.00 | 100 | 1014.8 |